Wetterdaten: Woche 03.02.20 - 09.02.20 (KW6)
Datum Zeit Temp. A. Feuchte A. Luftdruck Regen Wind Richtung Taupunkt Windchill Windben
03.02.2020 00:00 0,0 C 0 % 1007,4 hPa 0,0 l/m 0,0 km/h - - -60,0 C 0,0 C 0,0 km/h
03.02.2020 01:00 0,0 C 0 % 1008,2 hPa 0,0 l/m 0,0 km/h - - -60,0 C 0,0 C 0,0 km/h
03.02.2020 02:00 0,0 C 0 % 1009,0 hPa 0,0 l/m 0,0 km/h - - -60,0 C 0,0 C 0,0 km/h
03.02.2020 03:00 0,0 C 0 % 1009,2 hPa 0,0 l/m 0,0 km/h - - -60,0 C 0,0 C 0,0 km/h
03.02.2020 04:00 0,0 C 0 % 1009,0 hPa 0,0 l/m 0,0 km/h - - -60,0 C 0,0 C 0,0 km/h
03.02.2020 05:00 0,0 C 0 % 1009,3 hPa 0,0 l/m 0,0 km/h - - -60,0 C 0,0 C 0,0 km/h
03.02.2020 06:00 0,0 C 0 % 1010,5 hPa 0,0 l/m 0,0 km/h - - -60,0 C 0,0 C 0,0 km/h
03.02.2020 07:00 0,0 C 0 % 1010,9 hPa 0,0 l/m 0,0 km/h - - -60,0 C 0,0 C 0,0 km/h
03.02.2020 08:00 0,0 C 0 % 1011,7 hPa 0,0 l/m 0,0 km/h - - -60,0 C 0,0 C 0,0 km/h
03.02.2020 09:00 0,0 C 0 % 1012,3 hPa 0,0 l/m 0,0 km/h - - -60,0 C 0,0 C 0,0 km/h
03.02.2020 10:00 0,0 C 0 % 1012,8 hPa 0,0 l/m 0,0 km/h - - -60,0 C 0,0 C 0,0 km/h
03.02.2020 11:00 0,0 C 0 % 1013,3 hPa 0,0 l/m 0,0 km/h - - -60,0 C 0,0 C 0,0 km/h
03.02.2020 12:00 0,0 C 0 % 1013,0 hPa 0,0 l/m 0,0 km/h - - -60,0 C 0,0 C 0,0 km/h
03.02.2020 13:00 0,0 C 0 % 1012,9 hPa 0,0 l/m 0,0 km/h - - -60,0 C 0,0 C 0,0 km/h
03.02.2020 14:00 0,0 C 0 % 1012,8 hPa 0,0 l/m 0,0 km/h - - -60,0 C 0,0 C 0,0 km/h
03.02.2020 15:00 0,0 C 0 % 1012,7 hPa 0,0 l/m 0,0 km/h - - -60,0 C 0,0 C 0,0 km/h
03.02.2020 16:00 0,0 C 0 % 1012,8 hPa 0,0 l/m 0,0 km/h - - -60,0 C 0,0 C 0,0 km/h
03.02.2020 17:00 0,0 C 0 % 1012,8 hPa 0,0 l/m 0,0 km/h - - -60,0 C 0,0 C 0,0 km/h
03.02.2020 18:00 0,0 C 0 % 1012,5 hPa 0,0 l/m 0,0 km/h - - -60,0 C 0,0 C 0,0 km/h
03.02.2020 19:00 0,0 C 0 % 1012,0 hPa 0,0 l/m 0,0 km/h - - -60,0 C 0,0 C 0,0 km/h
03.02.2020 20:00 0,0 C 0 % 1011,3 hPa 0,0 l/m 0,0 km/h - - -60,0 C 0,0 C 0,0 km/h
03.02.2020 21:00 0,0 C 0 % 1011,4 hPa 0,0 l/m 0,0 km/h - - -60,0 C 0,0 C 0,0 km/h
03.02.2020 22:00 0,0 C 0 % 1011,6 hPa 0,0 l/m 0,0 km/h - - -60,0 C 0,0 C 0,0 km/h
03.02.2020 23:00 0,0 C 0 % 1011,6 hPa 0,0 l/m 0,0 km/h - - -60,0 C 0,0 C 0,0 km/h
04.02.2020 00:00 0,0 C 0 % 1010,2 hPa 0,0 l/m 0,0 km/h - - -60,0 C 0,0 C 0,0 km/h
04.02.2020 01:00 0,0 C 0 % 1008,7 hPa 0,0 l/m 0,0 km/h - - -60,0 C 0,0 C 0,0 km/h
04.02.2020 02:00 0,0 C 0 % 1007,3 hPa 0,0 l/m 0,0 km/h - - -60,0 C 0,0 C 0,0 km/h
04.02.2020 03:00 0,0 C 0 % 1004,5 hPa 0,0 l/m 0,0 km/h - - -60,0 C 0,0 C 0,0 km/h
04.02.2020 04:00 0,0 C 0 % 1001,0 hPa 0,0 l/m 0,0 km/h - - -60,0 C 0,0 C 0,0 km/h
04.02.2020 05:00 0,0 C 0 % 998,6 hPa 0,0 l/m 0,0 km/h - - -60,0 C 0,0 C 0,0 km/h
04.02.2020 06:00 0,0 C 0 % 995,9 hPa 0,0 l/m 0,0 km/h - - -60,0 C 0,0 C 0,0 km/h
04.02.2020 07:00 0,0 C 0 % 995,0 hPa 0,0 l/m 0,0 km/h - - -60,0 C 0,0 C 0,0 km/h
04.02.2020 08:00 0,0 C 0 % 995,7 hPa 0,0 l/m 0,0 km/h - - -60,0 C 0,0 C 0,0 km/h
04.02.2020 09:00 0,0 C 0 % 995,7 hPa 0,0 l/m 0,0 km/h - - -60,0 C 0,0 C 0,0 km/h
04.02.2020 10:00 0,0 C 0 % 998,4 hPa 0,0 l/m 0,0 km/h - - -60,0 C 0,0 C 0,0 km/h
04.02.2020 11:00 0,0 C 0 % 1000,2 hPa 0,0 l/m 0,0 km/h - - -60,0 C 0,0 C 0,0 km/h
04.02.2020 12:00 0,0 C 0 % 1001,1 hPa 0,0 l/m 0,0 km/h - - -60,0 C 0,0 C 0,0 km/h
04.02.2020 13:00 0,0 C 0 % 1001,3 hPa 0,0 l/m 0,0 km/h - - -60,0 C 0,0 C 0,0 km/h
04.02.2020 14:00 0,0 C 0 % 1002,6 hPa 0,0 l/m 0,0 km/h - - -60,0 C 0,0 C 0,0 km/h
04.02.2020 15:00 0,0 C 0 % 1004,3 hPa 0,0 l/m 0,0 km/h - - -60,0 C 0,0 C 0,0 km/h
04.02.2020 16:00 0,0 C 0 % 1005,2 hPa 0,0 l/m 0,0 km/h - - -60,0 C 0,0 C 0,0 km/h
04.02.2020 17:00 0,0 C 0 % 1005,8 hPa 0,0 l/m 0,0 km/h - - -60,0 C 0,0 C 0,0 km/h
04.02.2020 18:00 0,0 C 0 % 1006,8 hPa 0,0 l/m 0,0 km/h - - -60,0 C 0,0 C 0,0 km/h
04.02.2020 19:00 0,0 C 0 % 1007,0 hPa 0,0 l/m 0,0 km/h - - -60,0 C 0,0 C 0,0 km/h
04.02.2020 20:00 0,0 C 0 % 1007,2 hPa 0,0 l/m 0,0 km/h - - -60,0 C 0,0 C 0,0 km/h
04.02.2020 21:00 0,0 C 0 % 1007,8 hPa 0,0 l/m 0,0 km/h - - -60,0 C 0,0 C 0,0 km/h
04.02.2020 22:00 0,0 C 0 % 1008,3 hPa 0,0 l/m 0,0 km/h - - -60,0 C 0,0 C 0,0 km/h
04.02.2020 23:00 0,0 C 0 % 1008,7 hPa 0,0 l/m 0,0 km/h - - -60,0 C 0,0 C 0,0 km/h
05.02.2020 00:00 0,0 C 0 % 1009,0 hPa 0,0 l/m 0,0 km/h - - -60,0 C 0,0 C 0,0 km/h
05.02.2020 01:00 0,0 C 0 % 1009,0 hPa 0,0 l/m 0,0 km/h - - -60,0 C 0,0 C 0,0 km/h
05.02.2020 02:00 0,0 C 0 % 1009,0 hPa 0,0 l/m 0,0 km/h - - -60,0 C 0,0 C 0,0 km/h
05.02.2020 03:00 0,0 C 0 % 1008,7 hPa 0,0 l/m 0,0 km/h - - -60,0 C 0,0 C 0,0 km/h
05.02.2020 04:00 0,0 C 0 % 1009,4 hPa 0,0 l/m 0,0 km/h - - -60,0 C 0,0 C 0,0 km/h
05.02.2020 05:00 0,0 C 0 % 1010,6 hPa 0,0 l/m 0,0 km/h - - -60,0 C 0,0 C 0,0 km/h
05.02.2020 06:00 0,0 C 0 % 1011,7 hPa 0,0 l/m 0,0 km/h - - -60,0 C 0,0 C 0,0 km/h
05.02.2020 07:00 0,0 C 0 % 1012,8 hPa 0,0 l/m 0,0 km/h - - -60,0 C 0,0 C 0,0 km/h
05.02.2020 08:00 0,0 C 0 % 1014,2 hPa 0,0 l/m 0,0 km/h - - -60,0 C 0,0 C 0,0 km/h
05.02.2020 09:00 0,0 C 0 % 1015,7 hPa 0,0 l/m 0,0 km/h - - -60,0 C 0,0 C 0,0 km/h
05.02.2020 10:00 0,0 C 0 % 1017,0 hPa 0,0 l/m 0,0 km/h - - -60,0 C 0,0 C 0,0 km/h
05.02.2020 11:00 0,0 C 0 % 1018,5 hPa 0,0 l/m 0,0 km/h - - -60,0 C 0,0 C 0,0 km/h
05.02.2020 12:00 0,0 C 0 % 1019,7 hPa 0,0 l/m 0,0 km/h - - -60,0 C 0,0 C 0,0 km/h
05.02.2020 13:00 0,0 C 0 % 1020,9 hPa 0,0 l/m 0,0 km/h - - -60,0 C 0,0 C 0,0 km/h
05.02.2020 14:00 0,0 C 0 % 1022,2 hPa 0,0 l/m 0,0 km/h - - -60,0 C 0,0 C 0,0 km/h
05.02.2020 15:00 0,0 C 0 % 1023,7 hPa 0,0 l/m 0,0 km/h - - -60,0 C 0,0 C 0,0 km/h
05.02.2020 16:00 0,0 C 0 % 1024,7 hPa 0,0 l/m 0,0 km/h - - -60,0 C 0,0 C 0,0 km/h
05.02.2020 17:00 0,0 C 0 % 1025,6 hPa 0,0 l/m 0,0 km/h - - -60,0 C 0,0 C 0,0 km/h
05.02.2020 18:00 0,0 C 0 % 1027,3 hPa 0,0 l/m 0,0 km/h - - -60,0 C 0,0 C 0,0 km/h
05.02.2020 19:00 0,0 C 0 % 1028,7 hPa 0,0 l/m 0,0 km/h - - -60,0 C 0,0 C 0,0 km/h
05.02.2020 20:00 0,0 C 0 % 1029,4 hPa 0,0 l/m 0,0 km/h - - -60,0 C 0,0 C 0,0 km/h
05.02.2020 21:00 0,0 C 0 % 1030,3 hPa 0,0 l/m 0,0 km/h - - -60,0 C 0,0 C 0,0 km/h
05.02.2020 22:00 0,0 C 0 % 1030,6 hPa 0,0 l/m 0,0 km/h - - -60,0 C 0,0 C 0,0 km/h
05.02.2020 23:00 0,0 C 0 % 1030,6 hPa 0,0 l/m 0,0 km/h - - -60,0 C 0,0 C 0,0 km/h
06.02.2020 00:00 0,0 C 0 % 1030,5 hPa 0,0 l/m 0,0 km/h - - -60,0 C 0,0 C 0,0 km/h
06.02.2020 01:00 0,0 C 0 % 1030,3 hPa 0,0 l/m 0,0 km/h - - -60,0 C 0,0 C 0,0 km/h
06.02.2020 02:00 0,0 C 0 % 1030,2 hPa 0,0 l/m 0,0 km/h - - -60,0 C 0,0 C 0,0 km/h
06.02.2020 03:00 0,0 C 0 % 1029,5 hPa 0,0 l/m 0,0 km/h - - -60,0 C 0,0 C 0,0 km/h
06.02.2020 04:00 0,0 C 0 % 1029,2 hPa 0,0 l/m 0,0 km/h - - -60,0 C 0,0 C 0,0 km/h
06.02.2020 05:00 0,0 C 0 % 1029,2 hPa 0,0 l/m 0,0 km/h - - -60,0 C 0,0 C 0,0 km/h
06.02.2020 06:00 0,0 C 0 % 1028,6 hPa 0,0 l/m 0,0 km/h - - -60,0 C 0,0 C 0,0 km/h
06.02.2020 07:00 0,0 C 0 % 1028,6 hPa 0,0 l/m 0,0 km/h - - -60,0 C 0,0 C 0,0 km/h
06.02.2020 08:00 0,0 C 0 % 1028,5 hPa 0,0 l/m 0,0 km/h - - -60,0 C 0,0 C 0,0 km/h
06.02.2020 09:00 0,0 C 0 % 1028,3 hPa 0,0 l/m 0,0 km/h - - -60,0 C 0,0 C 0,0 km/h
06.02.2020 10:00 0,0 C 0 % 1028,1 hPa 0,0 l/m 0,0 km/h - - -60,0 C 0,0 C 0,0 km/h
06.02.2020 11:00 0,0 C 0 % 1028,3 hPa 0,0 l/m 0,0 km/h - - -60,0 C 0,0 C 0,0 km/h
06.02.2020 12:00 0,0 C 0 % 1027,8 hPa 0,0 l/m 0,0 km/h - - -60,0 C 0,0 C 0,0 km/h
06.02.2020 13:00 0,0 C 0 % 1027,1 hPa 0,0 l/m 0,0 km/h - - -60,0 C 0,0 C 0,0 km/h
06.02.2020 14:00 0,0 C 0 % 1026,6 hPa 0,0 l/m 0,0 km/h - - -60,0 C 0,0 C 0,0 km/h
06.02.2020 15:00 0,0 C 0 % 1027,0 hPa 0,0 l/m 0,0 km/h - - -60,0 C 0,0 C 0,0 km/h
06.02.2020 16:00 0,0 C 0 % 1026,6 hPa 0,0 l/m 0,0 km/h - - -60,0 C 0,0 C 0,0 km/h
06.02.2020 17:00 0,0 C 0 % 1025,7 hPa 0,0 l/m 0,0 km/h - - -60,0 C 0,0 C 0,0 km/h
06.02.2020 18:00 0,0 C 0 % 1026,1 hPa 0,0 l/m 0,0 km/h - - -60,0 C 0,0 C 0,0 km/h
06.02.2020 19:00 0,0 C 0 % 1026,1 hPa 0,0 l/m 0,0 km/h - - -60,0 C 0,0 C 0,0 km/h
06.02.2020 20:00 0,0 C 0 % 1026,2 hPa 0,0 l/m 0,0 km/h - - -60,0 C 0,0 C 0,0 km/h
06.02.2020 21:00 0,0 C 0 % 1026,9 hPa 0,0 l/m 0,0 km/h - - -60,0 C 0,0 C 0,0 km/h
06.02.2020 22:00 0,0 C 0 % 1027,0 hPa 0,0 l/m 0,0 km/h - - -60,0 C 0,0 C 0,0 km/h
06.02.2020 23:00 0,0 C 0 % 1027,3 hPa 0,0 l/m 0,0 km/h - - -60,0 C 0,0 C 0,0 km/h
07.02.2020 00:00 0,0 C 0 % 1027,1 hPa 0,0 l/m 0,0 km/h - - -60,0 C 0,0 C 0,0 km/h
07.02.2020 01:00 0,0 C 0 % 1026,9 hPa 0,0 l/m 0,0 km/h - - -60,0 C 0,0 C 0,0 km/h
07.02.2020 02:00 0,0 C 0 % 1026,7 hPa 0,0 l/m 0,0 km/h - - -60,0 C 0,0 C 0,0 km/h
07.02.2020 03:00 0,0 C 0 % 1026,4 hPa 0,0 l/m 0,0 km/h - - -60,0 C 0,0 C 0,0 km/h
07.02.2020 04:00 0,0 C 0 % 1026,5 hPa 0,0 l/m 0,0 km/h - - -60,0 C 0,0 C 0,0 km/h
07.02.2020 05:00 0,0 C 0 % 1026,3 hPa 0,0 l/m 0,0 km/h - - -60,0 C 0,0 C 0,0 km/h
07.02.2020 06:00 0,0 C 0 % 1026,3 hPa 0,0 l/m 0,0 km/h - - -60,0 C 0,0 C 0,0 km/h
07.02.2020 07:00 0,0 C 0 % 1026,8 hPa 0,0 l/m 0,0 km/h - - -60,0 C 0,0 C 0,0 km/h
07.02.2020 08:00 0,0 C 0 % 1027,1 hPa 0,0 l/m 0,0 km/h - - -60,0 C 0,0 C 0,0 km/h
07.02.2020 09:00 0,0 C 0 % 1027,4 hPa 0,0 l/m 0,0 km/h - - -60,0 C 0,0 C 0,0 km/h
07.02.2020 10:00 0,0 C 0 % 1027,6 hPa 0,0 l/m 0,0 km/h - - -60,0 C 0,0 C 0,0 km/h
07.02.2020 11:00 0,0 C 0 % 1028,1 hPa 0,0 l/m 0,0 km/h - - -60,0 C 0,0 C 0,0 km/h
07.02.2020 12:00 0,0 C 0 % 1027,8 hPa 0,0 l/m 0,0 km/h - - -60,0 C 0,0 C 0,0 km/h
07.02.2020 13:00 0,0 C 0 % 1027,3 hPa 0,0 l/m 0,0 km/h - - -60,0 C 0,0 C 0,0 km/h
07.02.2020 14:00 0,0 C 0 % 1027,1 hPa 0,0 l/m 0,0 km/h - - -60,0 C 0,0 C 0,0 km/h
07.02.2020 15:00 0,0 C 0 % 1027,1 hPa 0,0 l/m 0,0 km/h - - -60,0 C 0,0 C 0,0 km/h
07.02.2020 16:00 0,0 C 0 % 1027,3 hPa 0,0 l/m 0,0 km/h - - -60,0 C 0,0 C 0,0 km/h
07.02.2020 17:00 0,0 C 0 % 1027,4 hPa 0,0 l/m 0,0 km/h - - -60,0 C 0,0 C 0,0 km/h
07.02.2020 18:00 0,0 C 0 % 1027,9 hPa 0,0 l/m 0,0 km/h - - -60,0 C 0,0 C 0,0 km/h
07.02.2020 19:00 0,0 C 0 % 1028,0 hPa 0,0 l/m 0,0 km/h - - -60,0 C 0,0 C 0,0 km/h
07.02.2020 20:00 0,0 C 0 % 1028,1 hPa 0,0 l/m 0,0 km/h - - -60,0 C 0,0 C 0,0 km/h
07.02.2020 21:00 0,0 C 0 % 1028,3 hPa 0,0 l/m 0,0 km/h - - -60,0 C 0,0 C 0,0 km/h
07.02.2020 22:00 0,0 C 0 % 1028,6 hPa 0,0 l/m 0,0 km/h - - -60,0 C 0,0 C 0,0 km/h
07.02.2020 23:00 0,0 C 0 % 1028,6 hPa 0,0 l/m 0,0 km/h - - -60,0 C 0,0 C 0,0 km/h
08.02.2020 00:00 0,0 C 0 % 1028,4 hPa 0,0 l/m 0,0 km/h - - -60,0 C 0,0 C 0,0 km/h
08.02.2020 01:00 0,0 C 0 % 1028,1 hPa 0,0 l/m 0,0 km/h - - -60,0 C 0,0 C 0,0 km/h
08.02.2020 02:00 0,0 C 0 % 1028,1 hPa 0,0 l/m 0,0 km/h - - -60,0 C 0,0 C 0,0 km/h
08.02.2020 03:00 0,0 C 0 % 1027,8 hPa 0,0 l/m 0,0 km/h - - -60,0 C 0,0 C 0,0 km/h
08.02.2020 04:00 0,0 C 0 % 1027,6 hPa 0,0 l/m 0,0 km/h - - -60,0 C 0,0 C 0,0 km/h
08.02.2020 05:00 0,0 C 0 % 1027,5 hPa 0,0 l/m 0,0 km/h - - -60,0 C 0,0 C 0,0 km/h
08.02.2020 06:00 0,0 C 0 % 1027,2 hPa 0,0 l/m 0,0 km/h - - -60,0 C 0,0 C 0,0 km/h
08.02.2020 07:00 0,0 C 0 % 1027,3 hPa 0,0 l/m 0,0 km/h - - -60,0 C 0,0 C 0,0 km/h
08.02.2020 08:00 0,0 C 0 % 1027,4 hPa 0,0 l/m 0,0 km/h - - -60,0 C 0,0 C 0,0 km/h
08.02.2020 09:00 0,0 C 0 % 1027,4 hPa 0,0 l/m 0,0 km/h - - -60,0 C 0,0 C 0,0 km/h
08.02.2020 10:00 0,0 C 0 % 1027,6 hPa 0,0 l/m 0,0 km/h - - -60,0 C 0,0 C 0,0 km/h
08.02.2020 11:00 0,0 C 0 % 1027,8 hPa 0,0 l/m 0,0 km/h - - -60,0 C 0,0 C 0,0 km/h
08.02.2020 12:00 0,0 C 0 % 1027,5 hPa 0,0 l/m 0,0 km/h - - -60,0 C 0,0 C 0,0 km/h
08.02.2020 13:00 0,0 C 0 % 1026,9 hPa 0,0 l/m 0,0 km/h - - -60,0 C 0,0 C 0,0 km/h
08.02.2020 14:00 0,0 C 0 % 1026,4 hPa 0,0 l/m 0,0 km/h - - -60,0 C 0,0 C 0,0 km/h
08.02.2020 15:00 0,0 C 0 % 1025,9 hPa 0,0 l/m 0,0 km/h - - -60,0 C 0,0 C 0,0 km/h
08.02.2020 16:00 0,0 C 0 % 1025,6 hPa 0,0 l/m 0,0 km/h - - -60,0 C 0,0 C 0,0 km/h
08.02.2020 17:00 0,0 C 0 % 1025,8 hPa 0,0 l/m 0,0 km/h - - -60,0 C 0,0 C 0,0 km/h
08.02.2020 18:00 0,0 C 0 % 1025,9 hPa 0,0 l/m 0,0 km/h - - -60,0 C 0,0 C 0,0 km/h
08.02.2020 19:00 0,0 C 0 % 1026,1 hPa 0,0 l/m 0,0 km/h - - -60,0 C 0,0 C 0,0 km/h
08.02.2020 20:00 0,0 C 0 % 1025,9 hPa 0,0 l/m 0,0 km/h - - -60,0 C 0,0 C 0,0 km/h
08.02.2020 21:00 0,0 C 0 % 1025,9 hPa 0,0 l/m 0,0 km/h - - -60,0 C 0,0 C 0,0 km/h
08.02.2020 22:00 0,0 C 0 % 1025,8 hPa 0,0 l/m 0,0 km/h - - -60,0 C 0,0 C 0,0 km/h
08.02.2020 23:00 0,0 C 0 % 1025,8 hPa 0,0 l/m 0,0 km/h - - -60,0 C 0,0 C 0,0 km/h
09.02.2020 00:00 0,0 C 0 % 1025,9 hPa 0,0 l/m 0,0 km/h - - -60,0 C 0,0 C 0,0 km/h
09.02.2020 01:00 0,0 C 0 % 1025,6 hPa 0,0 l/m 0,0 km/h - - -60,0 C 0,0 C 0,0 km/h
09.02.2020 02:00 0,0 C 0 % 1025,6 hPa 0,0 l/m 0,0 km/h - - -60,0 C 0,0 C 0,0 km/h
09.02.2020 03:00 0,0 C 0 % 1025,6 hPa 0,0 l/m 0,0 km/h - - -60,0 C 0,0 C 0,0 km/h
09.02.2020 04:00 0,0 C 0 % 1025,9 hPa 0,0 l/m 0,0 km/h - - -60,0 C 0,0 C 0,0 km/h
09.02.2020 05:00 0,0 C 0 % 1026,0 hPa 0,0 l/m 0,0 km/h - - -60,0 C 0,0 C 0,0 km/h
09.02.2020 06:00 0,0 C 0 % 1026,1 hPa 0,0 l/m 0,0 km/h - - -60,0 C 0,0 C 0,0 km/h
09.02.2020 07:00 0,0 C 0 % 1026,1 hPa 0,0 l/m 0,0 km/h - - -60,0 C 0,0 C 0,0 km/h
09.02.2020 08:00 0,0 C 0 % 1026,6 hPa 0,0 l/m 0,0 km/h - - -60,0 C 0,0 C 0,0 km/h
09.02.2020 09:00 0,0 C 0 % 1026,6 hPa 0,0 l/m 0,0 km/h - - -60,0 C 0,0 C 0,0 km/h
09.02.2020 10:00 0,0 C 0 % 1026,3 hPa 0,0 l/m 0,0 km/h - - -60,0 C 0,0 C 0,0 km/h
09.02.2020 11:00 0,0 C 0 % 1026,0 hPa 0,0 l/m 0,0 km/h - - -60,0 C 0,0 C 0,0 km/h
09.02.2020 12:00 0,0 C 0 % 1024,8 hPa 0,0 l/m 0,0 km/h - - -60,0 C 0,0 C 0,0 km/h
09.02.2020 13:00 0,0 C 0 % 1023,7 hPa 0,0 l/m 0,0 km/h - - -60,0 C 0,0 C 0,0 km/h
09.02.2020 14:00 0,0 C 0 % 1022,5 hPa 0,0 l/m 0,0 km/h - - -60,0 C 0,0 C 0,0 km/h
09.02.2020 15:00 0,0 C 0 % 1021,8 hPa 0,0 l/m 0,0 km/h - - -60,0 C 0,0 C 0,0 km/h
09.02.2020 16:00 0,0 C 0 % 1020,8 hPa 0,0 l/m 0,0 km/h - - -60,0 C 0,0 C 0,0 km/h
09.02.2020 17:00 0,0 C 0 % 1019,8 hPa 0,0 l/m 0,0 km/h - - -60,0 C 0,0 C 0,0 km/h
09.02.2020 18:00 0,0 C 0 % 1018,8 hPa 0,0 l/m 0,0 km/h - - -60,0 C 0,0 C 0,0 km/h
09.02.2020 19:00 0,0 C 0 % 1017,6 hPa 0,0 l/m 0,0 km/h - - -60,0 C 0,0 C 0,0 km/h
09.02.2020 20:00 0,0 C 0 % 1016,3 hPa 0,0 l/m 0,0 km/h - - -60,0 C 0,0 C 0,0 km/h
09.02.2020 21:00 0,0 C 0 % 1014,8 hPa 0,0 l/m 0,0 km/h - - -60,0 C 0,0 C 0,0 km/h
09.02.2020 22:00 0,0 C 0 % 1013,3 hPa 0,0 l/m 0,0 km/h - - -60,0 C 0,0 C 0,0 km/h
09.02.2020 23:00 0,0 C 0 % 1011,8 hPa 0,0 l/m 0,0 km/h - - -60,0 C 0,0 C 0,0 km/h
Min-Datum _ 03.02.20 03.02.20 04.02.20 - 03.02.20 - 03.02.20 03.02.20 03.02.20
_ Min-Zeit 00:00 00:00 07:30 - 00:00 - 00:00 00:00 00:00
Minimum _ 0,0 C 0 % 994,3 hPa - 0,0 km/h - -60,0 C 0,0 C 0,0 km/h
Max-Datum _ 03.02.20 03.02.20 05.02.20 03.02.20 03.02.20 - 03.02.20 03.02.20 03.02.20
_ Max-Zeit 00:00 00:00 22:30 00:00 00:00 - 00:00 00:00 00:00
Maximum _ 0,0 C 0 % 1030,7 hPa 0,0 l/m 0,0 km/h
- -
- -60,0 C 0,0 C 0,0 km/h
- -
Durchschnitt _ 0,0 C 0 % 1019,7 hPa #0,0 l/m 0,0 km/h - - -60,0 C 0,0 C 0,0 km/h